TimeMST,TemperatureF,Dew PointF,Humidity,Sea Level PressureIn,VisibilityMPH,Wind Direction,Wind SpeedMPH,Gust SpeedMPH,PrecipitationIn,Events,Conditions,WindDirDegrees,DateUTC
12:53 AM,37.0,26.1,65,30.05,10.0,SW,5.8,-,N/A,,Clear,230,2012-11-07 07:53:00
1:53 AM,42.1,27.0,55,30.01,10.0,WSW,6.9,-,N/A,,Clear,250,2012-11-07 08:53:00
2:53 AM,41.0,27.0,57,30.00,10.0,West,6.9,-,N/A,,Clear,270,2012-11-07 09:53:00
3:53 AM,39.0,27.0,62,29.98,10.0,WNW,5.8,-,N/A,,Clear,300,2012-11-07 10:53:00
4:53 AM,41.0,26.1,55,29.98,10.0,West,9.2,-,N/A,,Clear,270,2012-11-07 11:53:00
5:53 AM,43.0,24.1,47,29.96,10.0,West,8.1,-,N/A,,Clear,270,2012-11-07 12:53:00
6:53 AM,46.9,25.0,42,29.96,10.0,WSW,8.1,-,N/A,,Clear,250,2012-11-07 13:53:00
7:53 AM,50.0,27.0,41,29.94,10.0,WSW,8.1,-,N/A,,Clear,250,2012-11-07 14:53:00
8:53 AM,54.0,26.1,34,29.91,10.0,WSW,8.1,17.3,N/A,,Clear,240,2012-11-07 15:53:00
9:53 AM,55.9,26.1,32,29.88,10.0,West,11.5,24.2,N/A,,Clear,260,2012-11-07 16:53:00
10:53 AM,57.9,25.0,28,29.86,10.0,WSW,13.8,19.6,N/A,,Clear,250,2012-11-07 17:53:00
11:53 AM,60.1,25.0,26,29.81,10.0,West,16.1,-,N/A,,Clear,260,2012-11-07 18:53:00
12:53 PM,61.0,23.0,23,29.80,10.0,WSW,10.4,-,N/A,,Clear,250,2012-11-07 19:53:00
1:53 PM,63.0,21.9,21,29.75,10.0,West,9.2,-,N/A,,Clear,260,2012-11-07 20:53:00
2:53 PM,63.0,21.9,21,29.75,10.0,West,9.2,-,N/A,,Clear,260,2012-11-07 21:53:00
3:53 PM,61.0,19.0,20,29.76,10.0,West,5.8,-,N/A,,Clear,270,2012-11-07 22:53:00
4:53 PM,55.0,19.0,24,29.78,10.0,WSW,4.6,-,N/A,,Clear,250,2012-11-07 23:53:00
5:53 PM,53.1,19.9,27,29.78,10.0,SW,4.6,-,N/A,,Clear,230,2012-11-08 00:53:00
6:53 PM,53.1,19.9,27,29.75,10.0,SW,4.6,-,N/A,,Clear,230,2012-11-08 01:53:00
7:53 PM,50.0,19.9,31,29.75,10.0,WSW,4.6,-,N/A,,Clear,240,2012-11-08 02:53:00
8:53 PM,50.0,21.0,32,29.74,10.0,West,4.6,-,N/A,,Clear,260,2012-11-08 03:53:00
9:53 PM,48.9,21.9,35,29.73,10.0,WSW,5.8,-,N/A,,Clear,240,2012-11-08 04:53:00
10:53 PM,48.9,21.0,33,29.72,10.0,West,4.6,-,N/A,,Clear,270,2012-11-08 05:53:00
11:53 PM,51.1,21.9,32,29.70,10.0,WNW,6.9,-,N/A,,Clear,290,2012-11-08 06:53:00